Location: Ermatingen
(47.6706°N, 9.0857°E)
Time: 22:03:10
(UTC+00:00)

ISS - Visible Passes

Search period start: 02 February 2023 00:00
Search period end: 12 February 2023 00:00
Orbit: 412 x 419 km, 51.6° (Epoch: 02 February)

Date Brightness Start Highest point End Pass type
(mag) Time Alt. Az. Time Alt. Az. Time Alt. Az.
02 Feb -1.3 18:19:34 10° W 18:22:10 21° SW 18:24:23 12° S visible
03 Feb -2.0 17:30:33 10° W 17:33:35 32° SW 17:36:37 10° SSE visible
05 Feb -0.7 17:30:32 10° W 17:32:28 14° SW 17:34:23 10° S visible
